Tracking 19212 objects as of 16-Jul-2018
HD Live streaming from Space Station
objects crossing your sky now

NATO 3D

Track NATO 3D now!
NATO 3D is classified as:


NORAD ID: 15391
Int'l Code: 1984-115A
Perigee: 36,917.0 km
Apogee: 37,790.1 km
Inclination: 14.4 °
Period: 1,516.5 minutes
Semi major axis: 43724 km
RCS: 5.3188 m2 (large)
Launch date: November 14, 1984
Source: North Atlantic Treaty Organization (NATO)
Launch site: AIR FORCE EASTERN TEST RANGE (AFETR)
aabbcc
Your satellite tracking list
Your tracking list is empty




NASA's NSSDC Master Catalog

Two Line Element Set (TLE):
1 15391U 84115A   18196.55932932 -.00000106 +00000-0 +00000-0 0  9999
2 15391 014.4279 013.8544 0099851 062.3120 130.1528 00.94954380120408
Source of the keplerian elements: AFSPC